Starlink 4621

operational
NORAD ID: 53676 Int'l Des: 2022-105 Owner: SPXS Country: US Constellation: starlink
LEOCIRCULARRETROGRADESSO

关于 Starlink 4621

正在加载描述...

实时位置

正在加载3D地球...

即将过境

高度历史

Altitude vs Time

uPlot chart will show altitude changes over time

两行轨道根数

1 53676U 22105AE 25350.21842228 .00003492 00000-0 27620-3 0 9999
2 53676 97.6044 228.4991 0002098 84.1095 276.0369 15.01265620180718
Epoch: Dec 16, 2025 • Age: 23 hours

当前状态

高度 575.1 km
速度 7.58 km/s
星下点 82.11°N, 24.06°W
发射日期 Aug 31, 2022
运行时间 3.2 years
类型 internet

技术详情

分类 Payload
质量 300.00 kg
干质量 290.00 kg
总质量 300.00 kg
长度 0.20 m
直径 2.80 m
跨度 9.00 m
形状 Box + pan
制造商 SPXS
平台类型 Starlink
阶段状态 In Orbit
所有者/国家 SPXS/US

大型星座

Loading constellations...